{"data":{"norad_id":66664,"epoch":"2026-07-25T10:38:14.228736Z","epoch_age_seconds":4947891,"freshness":"OLD","line1":"1 66664U 25275A   26206.44322024  .00008631  00000+0  16367-3 0  9999","line2":"2 66664  51.6316 110.7757 0006908 336.1751  23.8916 15.49160253576754","mean_motion":15.49160253,"eccentricity":0.0006908,"inclination_deg":51.6316,"raan_deg":110.7757,"arg_perigee_deg":336.1751,"mean_anomaly_deg":23.8916,"bstar":0.00016367,"rev_number":57675,"period_min":92.953585480353,"perigee_km":414.48576910726,"apogee_km":423.87694414878,"semimajor_km":6797.318356628,"source":"CELESTRAK","updated_at":"2026-07-26T09:00:29.722295Z"}}